GW1984 Weather Reports


Display with metric or nautical units.
time (UTC)temp
F
wind
direction
speed
MPH
gust
MPH
rain 1hr
in
rain 24hr
in
rain mn
in
humidity
%
barometer
mb
20260505173511 52 322 15.0 22.0 0.00 0.00 0.00 37 1009.4
20260505173032 52 302 16.0 22.0 0.00 0.00 0.00 37 1009.3
20260505172514 52 257 12.0 20.0 0.00 0.00 0.00 39 1009.3
20260505172013 52 304 16.0 20.0 0.00 0.00 0.00 37 1009.3
20260505171529 51 305 14.0 20.0 0.00 0.00 0.00 37 1009.3
20260505171013 52 292 16.0 20.0 0.00 0.00 0.00 36 1009.3
20260505170514 52 271 12.0 18.0 0.00 0.00 0.00 39 1009.4
20260505170031 52 294 11.0 17.0 0.00 0.00 0.00 36 1009.4
20260505165513 52 302 11.0 17.0 0.00 0.00 0.00 36 1009.4
20260505165013 52 288 11.0 19.0 0.00 0.00 0.00 37 1009.3
20260505164537 52 270 13.0 21.0 0.00 0.00 0.00 34 1009.3
20260505164014 52 296 14.0 26.0 0.00 0.00 0.00 35 1009.2
20260505163513 53 303 11.0 26.0 0.00 0.00 0.00 35 1009.2
20260505163040 52 267 14.0 22.0 0.00 0.00 0.00 33 1009.2
20260505162513 52 323 13.0 21.0 0.00 0.00 0.00 35 1009.1
20260505162013 52 330 12.0 21.0 0.00 0.00 0.00 36 1009.0
20260505161532 52 334 13.0 22.0 0.00 0.00 0.00 37 1008.9
20260505161014 51 315 15.0 22.0 0.00 0.00 0.00 37 1009.1
20260505160514 52 281 15.0 20.0 0.00 0.00 0.00 35 1009.2
20260505153039 52 317 12.0 20.0 0.00 0.00 0.00 37 1009.1
20260505152515 51 342 12.0 20.0 0.00 0.00 0.00 35 1009.1
20260505152020 51 270 14.0 21.0 0.00 0.00 0.00 36 1009.1
20260505151530 51 283 11.0 21.0 0.00 0.00 0.00 38 1009.1
20260505151013 51 288 15.0 21.0 0.00 0.00 0.00 35 1009.1
20260505150511 51 293 13.0 18.0 0.00 0.00 0.00 38 1008.9
20260505140514 50 304 15.0 19.0 0.00 0.00 0.00 40 1009.1
20260505125015 47 269 4.0 7.0 0.00 0.00 0.00 53 1009.4
20260505124536 47 272 3.0 7.0 0.00 0.00 0.00 54 1009.2
20260505124014 47 263 2.0 8.0 0.00 0.00 0.00 55 1009.3
20260505123518 47 279 6.0 8.0 0.00 0.00 0.00 53 1009.2
20260505123047 46 273 3.0 8.0 0.00 0.00 0.00 53 1009.3
20260505122514 46 288 4.0 8.0 0.00 0.00 0.00 53 1009.2
20260505122016 46 293 5.0 8.0 0.00 0.00 0.00 54 1009.2
20260505121532 46 292 3.0 7.0 0.00 0.00 0.00 55 1009.5
20260505121014 46 281 3.0 7.0 0.00 0.00 0.00 54 1009.6
20260505120513 46 304 4.0 7.0 0.00 0.00 0.00 54 1009.0
20260505120040 46 271 4.0 7.0 0.00 0.00 0.00 53 1009.7
20260505115513 46 292 1.0 5.0 0.00 0.00 0.00 53 1009.1
20260505115012 46 325 4.0 7.0 0.00 0.00 0.00 53 1008.9
20260505114529 46 302 1.0 10.0 0.00 0.00 0.00 54 1008.9
20260505114013 46 290 6.0 10.0 0.00 0.00 0.00 54 1008.7
20260505113511 46 300 6.0 10.0 0.00 0.00 0.00 54 1008.8
20260505113028 46 315 8.0 10.0 0.00 0.00 0.00 54 1008.5
20260505112515 46 263 2.0 6.0 0.00 0.00 0.00 54 1009.0
20260505112013 46 250 3.0 10.0 0.00 0.00 0.00 54 1008.9
20260505111532 46 306 5.0 13.0 0.00 0.00 0.00 53 1008.0
20260505111015 46 329 9.0 13.0 0.00 0.00 0.00 54 1007.2
20260505110513 46 323 10.0 12.0 0.00 0.00 0.00 54 1007.1
20260505102010 47 299 4.0 6.0 0.00 0.00 0.00 53 1008.0
20260505101533 48 329 2.0 8.0 0.00 0.00 0.00 54 1007.9
20260505101015 48 121 4.0 10.0 0.00 0.00 0.00 53 1007.4
20260505100514 48 347 7.0 11.0 0.00 0.00 0.00 53 1007.3
20260505100031 48 317 6.0 12.0 0.00 0.00 0.00 53 1007.2
20260505095513 48 207 9.0 12.0 0.00 0.00 0.00 52 1007.0
20260505095012 48 351 6.0 13.0 0.00 0.00 0.00 53 1006.8
20260505094530 48 351 8.0 14.0 0.00 0.00 0.00 53 1006.8
20260505094012 48 320 9.0 19.0 0.00 0.00 0.00 52 1007.0
20260505093513 48 333 15.0 19.0 0.00 0.00 0.00 51 1007.0
20260505093030 48 202 9.0 14.0 0.00 0.00 0.00 52 1006.5
20260505092513 48 147 8.0 13.0 0.00 0.00 0.00 52 1006.4
20260505092014 48 165 7.0 9.0 0.00 0.00 0.00 52 1006.3
20260505091532 48 360 5.0 10.0 0.00 0.00 0.00 52 1006.3
20260505091013 49 184 6.0 11.0 0.00 0.00 0.00 53 1006.4
20260505090514 49 348 6.0 12.0 0.00 0.00 0.00 51 1006.7
20260505090031 49 334 8.0 12.0 0.00 0.00 0.00 51 1006.8
20260505085513 49 322 7.0 13.0 0.00 0.00 0.00 51 1007.1
20260505085013 49 327 8.0 15.0 0.00 0.00 0.00 50 1007.1
20260505084545 49 327 10.0 15.0 0.00 0.00 0.00 50 1006.8
20260505084012 49 327 9.0 15.0 0.00 0.00 0.00 50 1006.8
20260505083512 49 332 12.0 15.0 0.00 0.00 0.00 49 1006.4
20260505083050 49 328 10.0 14.0 0.00 0.00 0.00 49 1006.0
20260505082512 49 333 9.0 16.0 0.00 0.00 0.00 49 1006.0
20260505082013 49 338 10.0 17.0 0.00 0.00 0.00 49 1005.6
20260505081537 49 317 12.0 17.0 0.00 0.00 0.00 49 1005.7
20260505081015 49 331 10.0 16.0 0.00 0.00 0.00 49 1005.7
20260505080512 50 12 9.0 15.0 0.00 0.00 0.00 49 1005.3
20260505080040 50 203 9.0 21.0 0.00 0.00 0.00 49 1005.1
20260505075514 50 338 13.0 21.0 0.00 0.00 0.00 49 1005.2
20260505075011 50 341 13.0 22.0 0.00 0.00 0.00 49 1005.2
20260505074529 50 351 15.0 22.0 0.00 0.00 0.00 49 1005.1
20260505074014 50 326 14.0 20.0 0.00 0.00 0.00 50 1004.9
20260505073514 51 351 13.0 18.0 0.00 0.00 0.00 52 1004.9
20260505073040 51 5 10.0 17.0 0.00 0.00 0.00 52 1005.1
20260505072513 51 348 10.0 18.0 0.00 0.00 0.00 52 1004.7
20260505072011 51 336 11.0 18.0 0.00 0.00 0.00 52 1004.7
20260505071542 51 340 10.0 17.0 0.00 0.00 0.00 53 1004.4
20260505071015 52 336 10.0 18.0 0.00 0.00 0.00 53 1004.5
20260505070515 52 352 11.0 18.0 0.00 0.00 0.00 52 1004.0
20260505070041 52 344 7.0 16.0 0.00 0.00 0.00 52 1003.7
20260505065513 52 342 9.0 13.0 0.00 0.00 0.00 52 1003.8
20260505065011 53 300 8.0 13.0 0.00 0.00 0.00 51 1004.2
20260505064534 53 302 9.0 12.0 0.00 0.00 0.00 51 1004.2
20260505064014 53 293 8.0 13.0 0.00 0.00 0.00 50 1004.0
20260505063514 53 317 9.0 15.0 0.00 0.00 0.00 50 1003.6
20260505063038 53 317 10.0 17.0 0.00 0.00 0.00 50 1003.7
20260505062512 53 303 11.0 17.0 0.00 0.00 0.00 50 1003.8
20260505062013 53 290 9.0 12.0 0.00 0.00 0.00 50 1003.7
20260505061531 53 302 8.0 15.0 0.00 0.00 0.00 50 1003.4
20260505061014 54 302 10.0 15.0 0.00 0.00 0.00 49 1003.5
20260505060514 54 294 9.0 16.0 0.00 0.00 0.00 49 1003.5
20260505060051 54 259 9.0 16.0 0.00 0.00 0.00 48 1003.5
20260505055513 54 293 8.0 14.0 0.00 0.00 0.00 48 1003.3
20260505055014 54 302 9.0 12.0 0.00 0.00 0.00 47 1003.3
20260505054531 55 317 9.0 13.0 0.00 0.00 0.00 47 1003.3
20260505054015 55 302 9.0 16.0 0.00 0.00 0.00 46 1003.2
20260505053514 55 313 11.0 16.0 0.00 0.00 0.00 46 1003.1
20260505053029 55 294 11.0 14.0 0.00 0.00 0.00 46 1003.0
20260505052513 56 300 9.0 16.0 0.00 0.00 0.00 46 1002.8
20260505052013 56 288 12.0 16.0 0.00 0.00 0.00 45 1003.0
20260505051532 56 293 12.0 16.0 0.00 0.00 0.00 45 1003.0
20260505051015 56 300 10.0 15.0 0.00 0.00 0.00 45 1002.8
20260505050514 56 288 12.0 17.0 0.00 0.00 0.00 45 1002.9
20260505041537 59 294 12.0 18.0 0.00 0.00 0.00 40 1002.3
20260505041014 59 288 14.0 18.0 0.00 0.00 0.00 39 1002.3
20260505040517 60 290 13.0 19.0 0.00 0.00 0.00 39 1002.2
20260505040034 60 297 15.0 20.0 0.00 0.00 0.00 39 1002.3
20260505035513 60 293 16.0 24.0 0.00 0.00 0.00 39 1002.3
20260505035018 60 305 17.0 24.0 0.00 0.00 0.00 39 1002.3
20260505034532 60 300 11.0 17.0 0.00 0.00 0.00 41 1002.2
20260505034017 61 300 12.0 15.0 0.00 0.00 0.00 40 1002.1
20260505033514 61 288 10.0 17.0 0.00 0.00 0.00 40 1002.0
20260505033033 61 294 12.0 21.0 0.00 0.00 0.00 40 1001.9
20260505032514 62 292 14.0 21.0 0.00 0.00 0.00 39 1002.1
20260505032016 62 266 13.0 21.0 0.00 0.00 0.00 39 1001.9
20260505031532 62 295 13.0 18.0 0.00 0.00 0.00 38 1001.8
20260505031014 62 305 12.0 20.0 0.00 0.00 0.00 37 1001.7
20260505030514 62 301 15.0 20.0 0.00 0.00 0.00 37 1001.7
20260505030034 62 317 11.0 17.0 0.00 0.00 0.00 37 1001.7
20260505025517 62 300 10.0 16.0 0.00 0.00 0.00 38 1001.6
20260505025013 62 304 11.0 16.0 0.00 0.00 0.00 38 1001.4
20260505024533 63 298 11.0 16.0 0.00 0.00 0.00 38 1001.4
20260505024015 63 310 8.0 17.0 0.00 0.00 0.00 38 1001.3
20260505023511 63 290 9.0 17.0 0.00 0.00 0.00 38 1001.1
20260505023030 63 313 11.0 18.0 0.00 0.00 0.00 36 1001.1
20260505022514 64 290 14.0 22.0 0.00 0.00 0.00 36 1001.1
20260505022014 64 286 15.0 22.0 0.00 0.00 0.00 36 1001.2
20260505021531 65 290 16.0 30.0 0.00 0.00 0.00 36 1001.2
20260505021015 65 307 20.0 33.0 0.00 0.00 0.00 35 1001.2
20260505020516 66 290 21.0 33.0 0.00 0.00 0.00 36 1001.2
20260505020038 66 279 12.0 22.0 0.00 0.00 0.00 36 1001.1
20260505015514 67 273 14.0 22.0 0.00 0.00 0.00 36 1000.9
20260505015014 67 288 12.0 20.0 0.00 0.00 0.00 35 1000.7
20260505014541 67 287 11.0 20.0 0.00 0.00 0.00 36 1000.5
20260505014011 68 288 14.0 21.0 0.00 0.00 0.00 36 1000.3
20260505013513 68 284 14.0 21.0 0.00 0.00 0.00 36 1000.1
20260505013037 69 289 15.0 22.0 0.00 0.00 0.00 36 999.7
20260505012514 69 287 13.0 24.0 0.00 0.00 0.00 36 999.5
20260505012013 70 304 17.0 26.0 0.00 0.00 0.00 35 999.2
20260505011536 70 291 18.0 26.0 0.00 0.00 0.00 36 999.0
20260505011015 70 275 16.0 25.0 0.00 0.00 0.00 36 998.6
20260505010511 70 293 17.0 29.0 0.00 0.00 0.00 35 998.4
20260505010031 71 309 22.0 29.0 0.00 0.00 0.00 35 998.2
20260505005513 72 287 22.0 29.0 0.00 0.00 0.00 37 997.9
20260505005012 72 292 22.0 29.0 0.00 0.00 0.00 37 997.7
20260505004544 73 295 18.0 29.0 0.00 0.00 0.00 38 997.5
20260505004015 74 290 16.0 26.0 0.00 0.00 0.00 38 997.4
20260505003513 74 302 16.0 23.0 0.00 0.00 0.00 38 997.3
20260505003049 74 301 17.0 23.0 0.00 0.00 0.00 38 997.3
20260505002514 75 286 12.0 23.0 0.00 0.00 0.00 39 997.2
20260505002013 75 281 11.0 20.0 0.00 0.00 0.00 38 997.2
20260505001530 76 270 13.0 20.0 0.00 0.00 0.00 37 997.0
20260505001015 76 286 9.0 19.0 0.00 0.00 0.00 37 996.9
20260505000512 77 272 11.0 17.0 0.00 0.00 0.00 35 996.7
20260505000035 77 284 7.0 14.0 0.00 0.00 0.00 36 996.6
20260504235514 77 284 7.0 14.0 0.00 0.00 0.00 37 996.6
20260504235012 77 248 6.0 18.0 0.00 0.00 0.00 38 996.7
20260504234531 77 257 10.0 18.0 0.00 0.00 0.00 37 996.7
20260504234016 77 241 10.0 17.0 0.00 0.00 0.00 37 996.8
20260504233513 77 244 9.0 17.0 0.00 0.00 0.00 37 996.7
20260504233035 77 236 7.0 18.0 0.00 0.00 0.00 38 996.8
20260504232517 77 220 7.0 18.0 0.00 0.00 0.00 38 996.7
20260504232012 76 228 5.0 15.0 0.00 0.00 0.00 39 996.8
20260504231532 77 219 7.0 15.0 0.00 0.00 0.00 38 996.9
20260504231014 77 238 6.0 13.0 0.00 0.00 0.00 37 996.8
20260504230516 78 220 8.0 13.0 0.00 0.00 0.00 37 996.7
20260504230030 78 230 7.0 14.0 0.00 0.00 0.00 37 996.8
20260504225512 78 219 9.0 17.0 0.00 0.00 0.00 36 996.8
20260504225015 79 257 5.0 17.0 0.00 0.00 0.00 35 997.0
20260504224529 79 206 7.0 16.0 0.00 0.00 0.00 35 997.1
20260504224011 79 227 8.0 18.0 0.00 0.00 0.00 33 997.1
20260504223512 79 252 10.0 25.0 0.00 0.00 0.00 33 997.2
20260504223041 79 227 13.0 29.0 0.00 0.00 0.00 32 997.2
20260504222517 79 230 16.0 29.0 0.00 0.00 0.00 32 997.2
20260504222012 80 235 15.0 27.0 0.00 0.00 0.00 32 997.2
20260504221530 80 244 12.0 23.0 0.00 0.00 0.00 32 997.2
20260504221014 80 252 14.0 26.0 0.00 0.00 0.00 32 997.1
20260504220514 80 219 11.0 26.0 0.00 0.00 0.00 32 997.1
20260504220032 80 263 15.0 23.0 0.00 0.00 0.00 31 997.2
20260504215514 80 238 12.0 22.0 0.00 0.00 0.00 33 997.2
20260504215016 79 254 14.0 22.0 0.00 0.00 0.00 33 997.3
20260504214532 79 250 12.0 25.0 0.00 0.00 0.00 34 997.3
20260504214018 80 267 15.0 25.0 0.00 0.00 0.00 32 997.3
20260504213514 80 251 15.0 27.0 0.00 0.00 0.00 31 997.3
20260504213030 80 256 16.0 27.0 0.00 0.00 0.00 32 997.4
20260504212512 79 257 13.0 26.0 0.00 0.00 0.00 31 997.4
20260504212015 79 252 13.0 23.0 0.00 0.00 0.00 32 997.6
20260504211544 79 244 11.0 23.0 0.00 0.00 0.00 31 997.5
20260504211015 80 248 15.0 23.0 0.00 0.00 0.00 31 997.6
20260504210511 80 271 14.0 23.0 0.00 0.00 0.00 31 997.8
20260504210036 80 250 13.0 24.0 0.00 0.00 0.00 32 997.9
20260504205514 79 249 16.0 26.0 0.00 0.00 0.00 31 997.9
20260504205013 79 257 16.0 26.0 0.00 0.00 0.00 31 997.9
20260504204532 80 242 13.0 25.0 0.00 0.00 0.00 31 997.9
20260504204014 80 263 14.0 26.0 0.00 0.00 0.00 31 998.0
20260504203514 80 232 14.0 26.0 0.00 0.00 0.00 31 998.0
20260504203033 79 261 15.0 25.0 0.00 0.00 0.00 31 998.0
20260504202516 79 209 14.0 28.0 0.00 0.00 0.00 31 998.1
20260504202016 79 267 13.0 28.0 0.00 0.00 0.00 31 998.1
20260504201531 79 234 14.0 26.0 0.00 0.00 0.00 31 998.2
20260504201012 79 261 12.0 26.0 0.00 0.00 0.00 34 998.2
20260504200515 79 220 11.0 25.0 0.00 0.00 0.00 32 998.2
20260504200030 79 248 11.0 23.0 0.00 0.00 0.00 33 998.3
20260504195518 80 250 12.0 24.0 0.00 0.00 0.00 33 998.3
20260504195011 79 267 13.0 28.0 0.00 0.00 0.00 33 998.4
20260504194531 79 242 17.0 28.0 0.00 0.00 0.00 33 998.4
20260504194014 79 227 11.0 19.0 0.00 0.00 0.00 34 998.5
20260504193513 79 230 9.0 26.0 0.00 0.00 0.00 33 998.5
20260504193034 78 232 13.0 26.0 0.00 0.00 0.00 33 998.8
20260504192513 79 236 10.0 19.0 0.00 0.00 0.00 33 998.6
20260504192014 78 225 10.0 21.0 0.00 0.00 0.00 34 998.8
20260504191534 78 276 13.0 24.0 0.00 0.00 0.00 32 998.8
20260504191014 78 251 13.0 24.0 0.00 0.00 0.00 32 999.0
20260504190514 77 247 14.0 24.0 0.00 0.00 0.00 29 999.0
20260504190032 78 247 13.0 22.0 0.00 0.00 0.00 31 998.9
20260504185512 77 244 13.0 22.0 0.00 0.00 0.00 30 999.0
20260504185014 78 243 10.0 18.0 0.00 0.00 0.00 31 999.0
20260504184543 78 224 12.0 23.0 0.00 0.00 0.00 28 999.0
20260504184013 77 255 15.0 23.0 0.00 0.00 0.00 28 999.0
20260504183514 77 214 10.0 22.0 0.00 0.00 0.00 30 999.0
20260504183032 77 261 13.0 25.0 0.00 0.00 0.00 29 999.1
20260504182514 76 238 15.0 25.0 0.00 0.00 0.00 28 999.2
20260504182012 77 253 10.0 21.0 0.00 0.00 0.00 30 999.2
20260504181534 76 251 9.0 18.0 0.00 0.00 0.00 31 999.2
20260504181014 76 250 11.0 18.0 0.00 0.00 0.00 32 999.3
20260504180513 76 242 11.0 21.0 0.00 0.00 0.00 31 999.4
20260504180033 76 212 12.0 21.0 0.00 0.00 0.00 33 999.5
20260504175513 75 218 10.0 22.0 0.00 0.00 0.00 32 999.3
20260504175018 75 219 15.0 22.0 0.00 0.00 0.00 32 999.4
20260504174533 75 272 13.0 22.0 0.00 0.00 0.00 34 999.3
20260504174014 75 252 12.0 21.0 0.00 0.00 0.00 34 999.5